Regional Weather Roundup
Issued by NWS Binghamton, NY

Home | Current Version | Previous Version | Text Only | Print | Product List | Glossary On
Versions: 1 2 3 4 5 6 7 8 9 10 11 12 13 14 15 16 17 18 19 20 21 22 23 24 25 26 27 28 29 30 31 32 33 34 35 36 37 38 39 40 41 42 43 44 45 46 47 48 49 50
000
ASUS41 KBGM 270710
RWRBGM
RWRBGM
BINGHAMTON REGIONAL WEATHER ROUNDUP
NATIONAL WEATHER SERVICE BINGHAMTON NY
300 AM EDT MON APR 27 2015

Note: "fair" indicates few or no clouds below 12,000 feet with no
significant weather and/or obstructions to visibility.

* = Station(s) that does not report precipitation, such as rain,
snow, etc, also no thunder or fog.

!NYZ009-015>018-022>025-036-037-044>046-055>057-062-270800
...CENTRAL NEW YORK...

CITY           SKY/WX    TMP DP  RH WIND       PRES   REMARKS
BINGHAMTON     CLOUDY    38  31  76 W6        29.70F WCI  33
CORTLAND       CLOUDY    39  34  81 SW5       29.73F
DANSVILLE      CLOUDY    45  34  65 CALM      29.77F
ELMIRA         CLOUDY    44  34  67 W3        29.74F
ITHACA         CLOUDY    39  36  89 CALM      29.74F
MONTICELLO     CLOUDY    39  30  70 NW9       29.68F WCI  33
PENN YAN       CLOUDY    43  35  73 W7        29.74F
ROME           CLOUDY    40  33  76 N3        29.73F
SYRACUSE       DRIZZLE   43  35  73 W5        29.72F
$$

!PAZ038>040-043-044-047-048-072-270800
...NORTHEAST PENNSYLVANIA...

CITY           SKY/WX    TMP DP  RH WIND       PRES   REMARKS
HAZLETON       CLOUDY    43  30  61 NW9       29.73F
SCRANTON       CLOUDY    44  30  57 N3        29.71F
TOWANDA*       CLOUDY    43  32  65 MISG      29.74F
$$
&&
KEY
WCI = WIND CHILL INDEX
VSB = VISIBILITY
HX  = HEAT INDEX
$$


USA.gov is the U.S. government's official web portal to all federal, state and local government web resources and services.